x

Dundrennan (03153) Weather Station

11:00pm - Tue 9th Feb 2016 All times are GMT.

  • Wind
    10mph
  • Air Temp 38°f
  • Sea Pressure 985mb
  • Dundrennan
  • Dundrennan

More Historic Weather Station data

Upgrade to MSW Pro to gain access to the past 30 days of data for over 8000 Wavebouys and Weather Stations around the globe.

Join Pro

Comparision Forecast

View Surf forecast
   
Tue 02/09 11:00pm 10
mph
985mb 38f
10:00pm 10
mph
984mb 37f
9:00pm 13
mph
983mb 38f
8:00pm 9
mph
982mb 37f
7:00pm 8
mph
982mb 39f
6:00pm 9
mph
981mb 40f
3:00pm 15
mph
979mb 39f
2:00pm 18
mph
979mb 39f
1:00pm 18
mph
979mb 39f
12:00pm 19
mph
979mb 39f
11:00am 22 29 mph 979mb 39f
10:00am 19 29 mph 979mb 39f
8:00am 22 34 mph 979mb 38f
7:00am 22 33 mph 979mb 39f
6:00am 25 40 mph 979mb 39f
5:00am 28 39 mph 980mb 39f
4:00am 26 44 mph 980mb 39f
3:00am 23 38 mph 980mb 40f
2:00am 28 41 mph 980mb 41f
1:00am 26 43 mph 981mb 41f
Mon 02/08 11:00pm 25 38 mph 981mb 41f
10:00pm 23 37 mph 981mb 42f
9:00pm 24 39 mph 980mb 42f
8:00pm 28 43 mph 980mb 42f
7:00pm 24 36 mph 979mb 43f
6:00pm 24 34 mph 978mb 44f
4:00pm 13 36 mph 976mb 44f
3:00pm 22 29 mph 974mb 43f
2:00pm 21 32 mph 972mb 44f
1:00pm 21 39 mph 971mb 42f
12:00pm 22 29 mph 970mb 44f
11:00am 19
mph
968mb 42f
10:00am 18
mph
967mb 43f
9:00am 21 31 mph 967mb 43f
8:00am 24 36 mph 966mb 42f
7:00am 24 37 mph 966mb 43f
6:00am 24 39 mph 966mb 42f
5:00am 28 43 mph 966mb 42f
4:00am 30 44 mph 967mb 42f
3:00am 29 44 mph 968mb 42f
2:00am 26 39 mph 969mb 42f
1:00am 29 39 mph 969mb 42f
Sun 02/07 11:00pm 25 34 mph 970mb 44f
10:00pm 22 38 mph 970mb 44f
9:00pm 30 38 mph 970mb 44f
8:00pm 24 47 mph 970mb 44f
7:00pm 31 47 mph 972mb 42f
6:00pm 26 39 mph 975mb 41f
5:00pm 29 44 mph 977mb 40f
4:00pm 33 49 mph 978mb 42f
3:00pm 32 44 mph 979mb 43f
2:00pm 31 46 mph 980mb 43f
1:00pm 33 51 mph 980mb 43f
12:00pm 36 51 mph 979mb 43f
11:00am 36 51 mph 979mb 43f
10:00am 31 45 mph 979mb 42f
9:00am 33 45 mph 978mb 41f
8:00am 28 48 mph 979mb 39f
7:00am 33 43 mph 978mb 41f
6:00am 24 38 mph 979mb 41f
5:00am 26 37 mph 978mb 40f
4:00am 24 31 mph 979mb 41f
3:00am 23 31 mph 978mb 41f
2:00am 22 33 mph 978mb 41f
1:00am 22 32 mph 978mb 42f
12:00am 23 32 mph 978mb 42f
Sat 02/06 11:00pm 17 34 mph 978mb 42f
10:00pm 24 33 mph 977mb 43f
9:00pm 22 34 mph 977mb 43f
8:00pm 21 34 mph 976mb 43f
7:00pm 19 40 mph 976mb 44f
6:00pm 28 44 mph 975mb 44f
5:00pm 31 44 mph 975mb 44f
4:00pm 31 39 mph 977mb 43f
2:00pm 28 38 mph 981mb 43f
1:00pm 21 32 mph 983mb 42f
12:00pm 25 36 mph 986mb 41f
11:00am 24 33 mph 987mb 40f
10:00am 24 32 mph 989mb 41f
9:00am 22 31 mph 991mb 41f
7:00am 17 40 mph 994mb 40f
6:00am 21 29 mph 995mb 42f
5:00am 19
mph
996mb 42f
4:00am 16
mph
997mb 41f
3:00am 18
mph
998mb 41f
2:00am 17
mph
999mb 42f
1:00am 15
mph
1000mb 41f